QPF
0.00 0.00 0.00 0.00 0.01 0.03 0.02 0.05 0.03 0.01 0.01 0.01 0.00 0.00 0.01 0.01 0.00 0.00 0.00 0.00 0.00 0.00 0.00 0.00 0.00 0.00 0.00 0.00 0.00 0.00 0.00 0.00 0.00 0.00 0.00 0.00 0.00 0.00 0.00 0.00 0.00 0.00 0.00 0.00 0.00 0.01 0.01 0.00 0.00
0.00 0.00 0.00 0.00 0.01 0.06 0.01 0.00 0.00 0.00 0.01 0.01 0.03 0.09 0.07 0.01 0.00 0.00 0.00 0.00 0.00 0.00 0.00 0.00 0.00 0.00 0.00 0.00 0.00 0.00 0.00 0.00 0.00 0.00 0.00 0.00 0.00 0.00 0.00 0.00 0.00 0.00 0.00 0.00 0.00 0.00 0.00 0.00 0.00
0.00 0.00 0.02 0.03 0.00 0.00 0.02 0.00 0.00 0.00 0.00 0.00 0.10 0.04 0.02 0.01 0.00 0.00 0.00 0.00 0.00 0.00 0.00 0.00 0.00 0.00 0.00 0.00 0.00 0.00 0.00 0.00 0.00 0.00 0.00 0.00 0.00 0.00 0.00 0.00 0.00 0.00 0.00 0.00 0.00 0.00 0.00 0.00 0.00
0.00 0.00 0.00 0.01 0.00 0.00 0.00 0.00 0.00 0.01 0.01 0.00 0.00 0.00 0.01 0.02 0.00 0.00 0.00 0.00 0.00 0.00 0.00 0.00 0.00 0.00 0.00 0.00 0.00 0.00 0.00 0.00 0.00 0.00 0.00 0.00 0.00 0.00 0.00 0.00 0.00 0.00 0.00 0.00 0.00 0.00 0.00 0.00 0.00
0.00 0.00 0.00 0.00 0.00 0.00 0.00 0.00 0.00 0.00 0.00 0.00 0.00 0.00 0.00 0.01 0.00 0.00 0.00 0.00 0.00 0.00 0.00 0.00 0.00 0.00 0.00 0.00 0.00 0.00 0.00 0.00 0.00 0.00 0.00 0.00 0.00 0.00 0.00 0.00 0.00 0.00 0.00 0.00 0.00 0.00 0.00 0.00 0.00
0.00 0.00 0.00 0.00 0.00 0.00 0.00 0.00 0.00 0.00 0.00 0.00 0.00 0.00 0.00 0.00 0.00 0.00 0.00 0.00 0.00 0.00 0.00 0.00 0.00 0.00 0.00 0.00 0.00 0.00 0.00 0.00 0.00 0.00 0.00 0.00 0.00 0.00 0.00 0.00 0.00 0.00 0.00 0.00 0.00 0.00 0.00 0.00 0.00
0.00 0.00 0.00 0.00 0.00 0.00 0.00 0.00 0.00 0.00 0.00 0.00 0.00 0.00 0.01 0.00 0.00 0.00 0.00 0.00 0.00 0.00 0.00 0.00 0.00 0.00 0.00 0.00 0.00 0.00 0.00 0.00 0.00 0.00 0.00 0.00 0.00 0.00 0.00 0.00 0.00 0.00 0.00 0.00 0.01 0.00 0.00 0.00 0.00
0.00 0.00 0.00 0.00 0.00 0.00 0.00 0.00 0.00 0.00 0.00 0.00 0.00 0.00 0.00 0.00 0.00 0.00 0.01 0.00 0.01 0.04 0.01 0.00 0.00 0.00 0.00 0.00 0.00 0.00 0.00 0.00 0.00 0.00 0.00 0.00 0.02 0.03 0.04 0.01 0.01 0.00 0.00 0.00 0.00 0.00 0.00 0.00 0.00
0.00 0.00 0.00 0.00 0.00 0.00 0.00 0.00 0.00 0.01 0.00 0.00 0.00 0.00 0.00 0.00 0.00 0.00 0.01 0.00 0.01 0.00 0.00 0.00 0.00 0.00 0.00 0.00 0.00 0.00 0.00 0.00 0.00 0.00 0.00 0.01 0.08 0.06 0.03 0.07 0.13 0.06 0.00 0.00 0.00 0.00 0.00 0.00 0.00
0.00 0.00 0.00 0.00 0.00 0.00 0.00 0.00 0.00 0.02 0.01 0.00 0.00 0.00 0.00 0.00 0.00 0.00 0.00 0.00 0.00 0.00 0.00 0.00 0.00 0.01 0.00 0.00 0.00 0.00 0.00 0.00 0.00 0.00 0.01 0.07 0.14 0.09 0.03 0.08 0.06 0.00 0.00 0.00 0.01 0.00 0.00 0.00 0.00
0.00 0.00 0.00 0.00 0.00 0.00 0.00 0.00 0.00 0.00 0.00 0.00 0.00 0.00 0.00 0.00 0.00 0.00 0.00 0.00 0.00 0.00 0.00 0.01 0.03 0.00 0.01 0.04 0.01 0.01 0.01 0.00 0.00 0.01 0.02 0.11 0.59 0.66 0.06 0.07 0.01 0.01 0.00 0.02 0.02 0.00 0.00 0.00 0.03
0.00 0.00 0.00 0.00 0.00 0.00 0.00 0.00 0.00 0.00 0.00 0.00 0.00 0.00 0.00 0.00 0.00 0.00 0.00 0.00 0.00 0.00 0.00 0.00 0.03 0.09 0.02 0.02 0.06 0.02 0.03 0.05 0.05 0.03 0.03 0.11 0.49 0.15 0.04 0.01 0.02 0.05 0.02 0.02 0.00 0.00 0.00 0.01 0.02
0.00 0.00 0.00 0.00 0.00 0.00 0.00 0.00 0.00 0.00 0.00 0.00 0.00 0.00 0.00 0.00 0.00 0.00 0.00 0.00 0.00 0.01 0.02 0.04 0.04 0.05 0.01 0.01 0.01 0.00 0.00 0.01 0.02 0.00 0.00 0.03 0.16 0.06 0.05 0.01 0.00 0.02 0.03 0.01 0.00 0.00 0.00 0.02 0.00
0.00 0.00 0.00 0.00 0.00 0.00 0.00 0.01 0.03 0.00 0.00 0.00 0.00 0.00 0.00 0.00 0.00 0.01 0.01 0.00 0.00 0.01 0.01 0.08 0.19 0.02 0.00 0.00 0.00 0.00 0.00 0.00 0.00 0.00 0.00 0.00 0.04 0.09 0.01 0.03 0.05 0.11 0.07 0.01 0.02 0.05 0.03 0.02 0.00
0.00 0.00 0.00 0.00 0.00 0.00 0.00 0.00 0.00 0.00 0.00 0.00 0.00 0.00 0.00 0.00 0.00 0.00 0.00 0.00 0.00 0.00 0.00 0.00 0.02 0.00 0.00 0.00 0.00 0.00 0.00 0.00 0.00 0.00 0.00 0.00 0.00 0.10 0.01 0.09 0.14 0.10 0.16 0.10 0.06 0.16 0.23 0.17 0.05
0.00 0.00 0.00 0.00 0.00 0.00 0.00 0.00 0.00 0.00 0.00 0.08 0.02 0.00 0.00 0.00 0.00 0.00 0.00 0.00 0.00 0.00 0.00 0.00 0.01 0.00 0.00 0.00 0.00 0.00 0.00 0.00 0.00 0.00 0.00 0.00 0.00 0.00 0.00 0.05 0.03 0.05 0.05 0.05 0.13 0.24 0.37 0.54 0.26
0.00 0.00 0.00 0.00 0.00 0.00 0.00 0.00 0.00 0.00 0.00 0.37 0.11 0.01 0.00 0.00 0.00 0.00 0.00 0.00 0.00 0.01 0.00 0.00 0.01 0.00 0.00 0.00 0.00 0.00 0.00 0.00 0.00 0.00 0.00 0.00 0.00 0.00 0.00 0.01 0.00 0.01 0.02 0.02 0.06 0.08 0.21 0.24 0.23
0.00 0.00 0.00 0.00 0.00 0.00 0.00 0.00 0.00 0.00 0.00 0.13 0.09 0.01 0.00 0.01 0.01 0.00 0.00 0.00 0.00 0.00 0.00 0.00 0.00 0.00 0.00 0.00 0.00 0.00 0.00 0.00 0.00 0.00 0.00 0.00 0.00 0.00 0.00 0.00 0.00 0.00 0.00 0.01 0.02 0.07 0.06 0.19 0.28
0.00 0.00 0.00 0.00 0.00 0.00 0.00 0.00 0.00 0.00 0.00 0.08 0.16 0.05 0.00 0.00 0.00 0.01 0.00 0.00 0.00 0.00 0.00 0.00 0.00 0.00 0.00 0.00 0.00 0.00 0.00 0.00 0.00 0.00 0.00 0.00 0.00 0.00 0.00 0.00 0.00 0.00 0.00 0.00 0.01 0.03 0.05 0.06 0.19
0.00 0.00 0.00 0.00 0.00 0.00 0.00 0.01 0.01 0.00 0.00 0.00 0.03 0.12 0.08 0.10 0.16 0.12 0.03 0.00 0.00 0.00 0.00 0.00 0.00 0.00 0.00 0.00 0.00 0.00 0.00 0.00 0.00 0.00 0.00 0.00 0.00 0.00 0.00 0.00 0.00 0.00 0.00 0.00 0.01 0.00 0.01 0.03 0.05
0.00 0.00 0.00 0.00 0.00 0.00 0.00 0.11 0.11 0.02 0.03 0.01 0.00 0.01 0.08 0.18 0.66 0.28 0.02 0.02 0.00 0.00 0.00 0.00 0.00 0.00 0.00 0.00 0.00 0.00 0.00 0.00 0.00 0.00 0.00 0.00 0.00 0.00 0.00 0.00 0.00 0.00 0.00 0.00 0.00 0.00 0.03 0.03 0.04
0.00 0.00 0.00 0.00 0.00 0.00 0.00 0.01 0.01 0.02 0.04 0.04 0.00 0.00 0.01 0.01 0.16 0.25 0.03 0.05 0.01 0.00 0.01 0.02 0.00 0.00 0.00 0.00 0.00 0.00 0.00 0.00 0.00 0.02 0.02 0.00 0.00 0.00 0.00 0.00 0.00 0.00 0.00 0.00 0.00 0.00 0.01 0.01 0.01
0.00 0.00 0.00 0.00 0.00 0.00 0.00 0.00 0.00 0.06 0.03 0.01 0.00 0.00 0.01 0.01 0.00 0.00 0.13 0.26 0.07 0.06 0.02 0.03 0.02 0.01 0.01 0.00 0.00 0.00 0.00 0.00 0.01 0.02 0.06 0.04 0.01 0.00 0.01 0.00 0.00 0.00 0.00 0.01 0.01 0.01 0.00 0.00 0.03
0.00 0.00 0.00 0.00 0.00 0.00 0.00 0.00 0.00 0.00 0.00 0.00 0.00 0.00 0.00 0.00 0.02 0.01 0.10 0.33 0.19 0.22 0.07 0.00 0.00 0.00 0.03 0.00 0.00 0.00 0.00 0.00 0.02 0.03 0.02 0.00 0.00 0.02 0.00 0.00 0.01 0.00 0.02 0.01 0.01 0.03 0.01 0.01 0.01
0.00 0.00 0.00 0.00 0.00 0.00 0.02 0.00 0.00 0.00 0.00 0.00 0.00 0.00 0.01 0.01 0.03 0.09 0.11 0.15 0.32 0.69 0.16 0.02 0.00 0.00 0.01 0.00 0.00 0.00 0.00 0.01 0.01 0.01 0.01 0.00 0.00 0.05 0.04 0.01 0.01 0.01 0.00 0.00 0.00 0.00 0.00 0.01 0.01
0.00 0.00 0.00 0.00 0.01 0.01 0.10 0.02 0.05 0.09 0.04 0.00 0.03 0.05 0.03 0.03 0.06 0.10 0.09 0.13 0.07 0.03 0.06 0.08 0.11 0.07 0.01 0.01 0.00 0.00 0.00 0.01 0.00 0.00 0.00 0.00 0.00 0.01 0.02 0.01 0.01 0.02 0.00 0.00 0.00 0.00 0.00 0.00 0.00
0.00 0.00 0.00 0.00 0.01 0.04 0.08 0.06 0.11 0.20 0.10 0.02 0.02 0.01 0.00 0.00 0.01 0.02 0.05 0.05 0.03 0.01 0.04 0.04 0.07 0.03 0.01 0.02 0.01 0.01 0.02 0.02 0.01 0.01 0.02 0.01 0.00 0.00 0.00 0.01 0.04 0.01 0.00 0.02 0.04 0.02 0.01 0.02 0.00
0.00 0.00 0.00 0.00 0.01 0.04 0.04 0.10 0.11 0.18 0.19 0.05 0.07 0.00 0.00 0.00 0.00 0.00 0.00 0.00 0.02 0.04 0.06 0.09 0.09 0.04 0.02 0.02 0.02 0.02 0.03 0.09 0.07 0.09 0.05 0.02 0.00 0.01 0.02 0.05 0.11 0.05 0.02 0.02 0.04 0.09 0.02 0.13 0.04
0.00 0.00 0.00 0.00 0.00 0.00 0.00 0.07 0.09 0.11 0.05 0.05 0.06 0.02 0.00 0.00 0.00 0.00 0.00 0.00 0.00 0.00 0.01 0.02 0.02 0.01 0.01 0.02 0.03 0.05 0.05 0.04 0.05 0.04 0.02 0.02 0.04 0.05 0.03 0.08 0.06 0.03 0.04 0.03 0.07 0.11 0.11 0.16 0.06
0.00 0.00 0.00 0.00 0.00 0.00 0.00 0.02 0.00 0.02 0.00 0.03 0.04 0.00 0.00 0.00 0.00 0.00 0.00 0.00 0.00 0.00 0.00 0.00 0.00 0.00 0.00 0.00 0.00 0.01 0.02 0.04 0.07 0.06 0.10 0.16 0.13 0.02 0.00 0.01 0.02 0.04 0.03 0.05 0.04 0.03 0.09 0.08 0.04
MSLP
1007.10 1006.85 1007.65 1007.48 1008.58 1008.98 1008.78 1007.95 1006.75 1006.29 1006.80 1007.59 1007.26 1007.60 1008.11 1008.64 1009.23 1010.83 1010.94 1012.10 1013.30 1014.08 1014.56 1014.93 1015.24 1015.71 1016.09 1016.36 1016.50 1016.82 1017.16 1017.34 1017.39 1017.40 1017.43 1017.48 1017.51 1017.54 1017.52 1017.49 1017.53 1017.67 1017.92 1017.96 1017.94 1018.13 1018.34 1018.48 1018.46
1006.72 1006.42 1006.97 1008.18 1008.67 1008.70 1007.99 1006.84 1006.19 1006.10 1006.46 1008.03 1008.69 1008.55 1008.47 1008.36 1008.58 1009.84 1011.16 1012.40 1012.87 1013.89 1014.55 1015.02 1015.34 1015.78 1016.08 1016.41 1016.69 1016.91 1017.23 1017.44 1017.53 1017.56 1017.58 1017.61 1017.68 1017.70 1017.66 1017.65 1017.69 1017.81 1017.93 1018.02 1018.04 1018.18 1018.36 1018.64 1018.66
1007.43 1006.86 1007.39 1008.12 1007.99 1007.33 1006.87 1005.97 1005.93 1005.27 1005.93 1006.57 1008.70 1009.01 1008.60 1008.27 1008.80 1009.62 1011.20 1012.12 1013.00 1014.01 1014.62 1015.16 1015.45 1015.80 1016.06 1016.48 1016.79 1017.05 1017.28 1017.49 1017.59 1017.69 1017.75 1017.76 1017.80 1017.86 1017.85 1017.84 1017.93 1018.06 1018.10 1018.12 1018.16 1018.25 1018.51 1018.73 1018.83
1006.90 1006.80 1007.32 1007.35 1006.71 1005.66 1005.73 1006.08 1005.58 1005.29 1005.94 1006.17 1007.31 1008.31 1008.04 1008.18 1008.47 1009.35 1010.90 1011.90 1012.96 1014.07 1014.74 1015.21 1015.53 1015.78 1016.09 1016.53 1016.84 1017.12 1017.30 1017.52 1017.70 1017.90 1018.10 1018.10 1018.07 1018.08 1018.12 1018.15 1018.26 1018.34 1018.30 1018.28 1018.36 1018.48 1018.71 1018.79 1018.89
1006.58 1006.91 1007.38 1006.91 1005.84 1005.09 1005.01 1004.66 1005.47 1005.34 1006.11 1006.57 1006.71 1008.16 1008.50 1008.38 1008.83 1009.78 1010.74 1011.80 1012.73 1014.06 1014.70 1015.27 1015.58 1015.89 1016.19 1016.61 1016.90 1017.16 1017.36 1017.65 1018.01 1018.11 1018.22 1018.32 1018.36 1018.38 1018.36 1018.36 1018.41 1018.42 1018.39 1018.33 1018.39 1018.60 1018.83 1019.06 1019.15
1006.53 1007.38 1007.32 1006.37 1005.46 1004.82 1004.31 1004.33 1004.91 1005.33 1005.93 1006.87 1007.44 1008.30 1008.83 1008.85 1009.12 1009.99 1010.88 1011.84 1012.87 1013.80 1014.69 1015.20 1015.64 1015.97 1016.42 1016.67 1016.96 1017.20 1017.51 1017.83 1018.12 1018.21 1018.30 1018.47 1018.57 1018.55 1018.53 1018.53 1018.57 1018.55 1018.48 1018.45 1018.41 1018.56 1018.83 1019.06 1019.26
1006.10 1007.02 1006.52 1005.65 1005.30 1004.76 1005.06 1004.28 1004.76 1005.40 1005.82 1006.38 1007.12 1008.27 1009.28 1009.40 1009.44 1009.98 1011.02 1012.30 1013.30 1013.87 1014.75 1015.33 1015.69 1016.09 1016.60 1016.86 1017.12 1017.37 1017.66 1017.85 1018.08 1018.29 1018.40 1018.59 1018.64 1018.49 1018.51 1018.59 1018.64 1018.70 1018.71 1018.71 1018.69 1018.66 1018.81 1019.09 1019.23
1005.10 1006.07 1005.54 1005.03 1004.69 1004.49 1004.41 1004.80 1005.10 1005.65 1005.53 1005.88 1006.10 1007.92 1009.22 1009.39 1009.70 1010.70 1011.58 1012.64 1013.68 1014.46 1014.84 1015.44 1015.87 1016.26 1016.75 1016.97 1017.12 1017.42 1017.70 1017.94 1018.11 1018.16 1018.28 1018.39 1018.44 1018.52 1018.47 1018.38 1018.42 1018.52 1018.75 1018.82 1018.75 1018.71 1018.79 1018.88 1019.12
1003.38 1004.74 1004.74 1004.02 1004.06 1004.14 1004.54 1004.83 1004.72 1005.42 1005.81 1005.89 1006.30 1007.48 1008.47 1009.13 1009.87 1010.83 1012.14 1013.18 1014.12 1014.56 1014.94 1015.36 1015.72 1016.11 1016.62 1016.88 1017.05 1017.25 1017.52 1017.81 1017.81 1017.86 1018.10 1018.17 1018.69 1018.39 1018.79 1018.44 1018.32 1018.39 1018.70 1018.86 1018.79 1018.68 1018.59 1018.62 1018.77
1003.06 1003.80 1003.44 1003.14 1003.34 1003.46 1004.09 1004.62 1005.41 1006.19 1006.44 1007.00 1007.67 1008.40 1008.87 1009.35 1010.10 1011.20 1012.37 1013.19 1013.63 1014.26 1014.74 1015.05 1015.12 1015.67 1016.31 1016.47 1016.86 1017.07 1017.32 1017.63 1017.60 1017.88 1018.00 1018.63 1019.15 1018.93 1018.63 1018.76 1018.62 1018.54 1018.62 1018.69 1018.61 1018.50 1018.47 1018.31 1018.39
1002.39 1002.87 1002.88 1002.86 1002.83 1003.08 1004.09 1005.27 1005.12 1005.76 1006.62 1006.86 1007.80 1008.46 1009.04 1009.52 1010.26 1011.01 1011.75 1012.29 1012.83 1013.63 1014.29 1014.79 1015.12 1015.37 1016.08 1016.37 1016.72 1016.95 1017.36 1017.42 1017.53 1017.74 1018.27 1018.74 1018.66 1018.60 1018.74 1018.83 1018.74 1018.64 1018.46 1018.56 1018.43 1018.43 1018.34 1018.45 1018.34
1002.01 1002.23 1002.47 1002.52 1002.49 1003.38 1004.90 1005.50 1005.20 1005.72 1006.66 1006.99 1007.68 1008.22 1008.84 1009.23 1010.07 1010.67 1011.50 1012.24 1012.76 1013.13 1013.85 1014.32 1014.76 1015.23 1015.69 1016.28 1016.61 1016.48 1017.08 1017.29 1017.44 1017.53 1018.04 1018.40 1018.47 1018.39 1018.80 1018.71 1018.39 1018.39 1018.40 1018.39 1018.21 1018.24 1018.23 1018.30 1018.32
1001.77 1002.06 1002.22 1002.15 1003.03 1003.83 1004.10 1006.01 1006.03 1006.38 1007.05 1007.58 1007.91 1008.41 1008.91 1009.30 1010.06 1010.76 1011.18 1011.83 1012.58 1013.12 1013.62 1014.31 1014.76 1015.25 1015.47 1015.99 1016.17 1016.27 1016.53 1016.50 1016.73 1016.98 1017.20 1017.68 1018.07 1018.41 1018.63 1018.47 1018.18 1018.20 1018.05 1017.88 1017.88 1017.98 1017.91 1017.99 1018.04
1001.76 1002.02 1002.15 1002.39 1003.42 1004.12 1004.90 1006.06 1005.71 1006.89 1007.14 1007.90 1008.23 1008.60 1008.93 1009.24 1009.85 1010.43 1011.10 1011.80 1012.41 1013.34 1013.65 1013.92 1014.42 1014.81 1014.94 1015.52 1015.69 1015.68 1015.97 1016.08 1016.06 1016.50 1016.73 1017.06 1017.90 1018.48 1018.57 1017.69 1017.65 1017.85 1018.00 1018.14 1018.29 1017.93 1017.89 1017.94 1017.81
1001.87 1002.38 1002.35 1002.60 1003.29 1005.19 1005.17 1006.89 1006.75 1006.80 1006.94 1007.85 1008.37 1008.63 1008.58 1008.85 1009.35 1009.92 1010.47 1011.27 1011.97 1012.73 1013.43 1013.91 1013.82 1014.29 1014.63 1015.07 1015.37 1015.49 1015.26 1015.45 1016.02 1016.02 1016.28 1016.76 1017.25 1017.61 1017.82 1017.59 1017.21 1017.77 1017.67 1017.94 1017.99 1018.24 1018.25 1018.06 1017.61
1002.34 1002.51 1002.91 1002.90 1003.25 1004.27 1004.89 1006.70 1006.66 1006.59 1007.79 1010.22 1008.81 1008.33 1008.41 1008.80 1009.11 1009.66 1009.94 1010.85 1011.50 1012.37 1012.93 1013.72 1013.78 1014.19 1014.25 1014.61 1014.88 1015.36 1015.40 1015.32 1015.63 1016.01 1016.03 1016.09 1016.65 1016.81 1017.66 1017.56 1017.25 1017.27 1017.45 1017.69 1017.81 1018.19 1018.44 1018.08 1017.84
1002.99 1003.27 1003.00 1003.45 1003.38 1004.23 1005.42 1006.92 1006.93 1007.73 1007.86 1010.63 1009.62 1008.73 1008.08 1008.44 1008.78 1009.15 1009.33 1010.23 1011.02 1011.87 1012.39 1013.05 1013.32 1013.67 1014.01 1014.19 1014.54 1014.88 1015.18 1015.30 1015.33 1015.60 1015.95 1015.89 1016.03 1016.23 1016.70 1016.89 1016.67 1016.79 1017.05 1017.56 1017.93 1017.79 1017.75 1018.03 1017.64
1003.30 1003.22 1003.28 1003.41 1003.90 1004.65 1006.38 1008.04 1008.02 1008.74 1008.66 1009.71 1009.96 1008.79 1006.97 1007.55 1008.08 1008.48 1008.80 1009.53 1010.18 1010.85 1011.72 1012.40 1013.02 1013.56 1013.72 1014.20 1014.51 1014.83 1015.14 1015.06 1015.11 1015.06 1015.52 1015.73 1016.07 1016.14 1016.20 1016.39 1016.54 1016.37 1016.99 1017.32 1017.43 1017.22 1017.74 1017.66 1017.36
1003.02 1003.46 1002.99 1003.65 1004.10 1006.49 1008.10 1009.15 1009.48 1008.85 1009.52 1012.06 1011.34 1010.50 1007.23 1007.34 1008.10 1007.86 1008.19 1009.40 1010.09 1010.62 1011.37 1012.09 1012.60 1013.06 1013.83 1014.34 1014.54 1014.76 1015.00 1015.01 1015.07 1015.01 1015.18 1015.55 1015.95 1016.10 1016.11 1016.13 1016.35 1016.11 1016.81 1017.07 1016.85 1016.90 1017.21 1017.40 1017.45
1002.68 1002.94 1003.07 1003.86 1005.58 1007.10 1008.77 1010.30 1010.35 1009.48 1008.82 1009.11 1009.63 1008.29 1009.09 1009.91 1010.77 1010.99 1009.40 1009.02 1010.08 1010.55 1011.23 1012.23 1012.62 1013.31 1013.41 1013.82 1014.10 1014.45 1014.85 1014.79 1014.79 1014.69 1014.87 1015.18 1015.57 1015.72 1015.97 1016.11 1016.35 1016.47 1016.58 1016.89 1016.93 1016.58 1016.97 1017.10 1017.07
1002.58 1002.70 1002.91 1003.97 1005.88 1008.01 1009.01 1011.64 1011.82 1010.51 1009.55 1007.61 1006.88 1007.31 1008.77 1010.19 1013.53 1012.02 1010.53 1010.68 1010.07 1010.67 1011.13 1011.79 1012.59 1013.22 1013.56 1013.87 1014.20 1014.46 1014.77 1014.82 1014.88 1015.03 1015.01 1015.03 1015.12 1015.23 1015.42 1015.68 1015.89 1016.27 1016.45 1016.67 1016.87 1016.59 1016.63 1016.83 1016.82
1002.31 1002.12 1002.64 1003.66 1005.53 1007.91 1008.94 1012.43 1012.94 1011.85 1010.79 1008.99 1008.56 1007.75 1009.72 1010.09 1010.38 1009.31 1009.78 1011.42 1012.18 1011.05 1010.93 1011.58 1012.28 1012.92 1013.34 1013.76 1014.09 1014.51 1014.81 1015.09 1014.99 1014.90 1014.89 1014.82 1014.59 1014.95 1015.24 1015.38 1015.58 1015.86 1016.31 1016.54 1016.70 1016.70 1016.69 1016.96 1016.98
1001.95 1001.97 1002.74 1003.79 1005.68 1007.57 1010.01 1012.10 1013.08 1012.75 1011.01 1009.47 1008.98 1008.45 1009.00 1009.99 1009.79 1009.95 1011.24 1011.37 1011.32 1012.81 1012.09 1011.92 1011.88 1012.54 1012.87 1013.34 1013.72 1014.16 1014.46 1014.59 1014.62 1014.71 1014.92 1015.16 1014.94 1014.70 1014.79 1015.13 1015.41 1015.76 1015.98 1016.24 1016.37 1016.52 1016.70 1016.61 1016.74
1001.71 1002.34 1003.26 1004.40 1006.32 1009.12 1010.37 1011.86 1013.99 1013.54 1011.58 1010.11 1009.54 1009.03 1009.13 1010.00 1010.79 1010.62 1011.38 1011.01 1012.59 1011.93 1013.49 1012.03 1012.02 1012.26 1012.76 1012.88 1013.25 1013.58 1013.96 1014.23 1014.43 1014.56 1014.92 1014.79 1014.71 1014.69 1014.52 1014.49 1014.82 1015.12 1015.56 1015.73 1015.96 1016.23 1016.37 1016.29 1016.37
1001.92 1003.19 1004.46 1006.53 1008.55 1012.04 1012.13 1012.75 1013.31 1012.45 1011.35 1010.13 1009.88 1009.61 1009.91 1010.36 1010.50 1012.49 1012.83 1013.90 1013.57 1013.65 1013.88 1012.84 1012.32 1012.30 1012.66 1012.88 1013.04 1013.14 1013.46 1013.85 1014.16 1014.42 1014.61 1014.67 1014.61 1014.66 1014.47 1014.35 1014.67 1014.75 1014.88 1015.11 1015.29 1015.77 1015.97 1016.09 1016.39
1002.18 1003.26 1004.80 1007.15 1009.47 1012.09 1013.20 1014.33 1014.37 1013.95 1012.30 1010.62 1010.69 1010.39 1010.26 1011.20 1011.70 1012.74 1012.78 1013.19 1013.65 1013.24 1012.38 1012.16 1012.51 1012.75 1013.03 1012.90 1012.88 1012.89 1012.95 1013.29 1013.44 1013.59 1013.90 1014.05 1014.18 1014.18 1013.98 1013.97 1014.00 1014.23 1014.23 1014.50 1014.83 1015.17 1015.31 1015.45 1015.68
1001.88 1003.08 1004.46 1006.78 1009.08 1012.99 1015.24 1014.99 1014.27 1014.34 1013.09 1012.43 1011.59 1011.46 1011.42 1011.81 1011.81 1012.05 1013.01 1013.04 1013.08 1012.62 1013.02 1013.19 1013.54 1014.03 1013.92 1013.63 1013.19 1013.18 1013.07 1012.84 1013.03 1013.12 1013.32 1013.44 1013.40 1013.42 1013.45 1013.52 1013.69 1013.92 1014.03 1014.28 1014.54 1014.64 1014.89 1015.15 1015.14
1001.66 1003.02 1004.99 1007.66 1010.95 1013.74 1015.56 1015.33 1014.03 1014.90 1013.29 1013.34 1013.06 1012.15 1012.31 1012.51 1012.55 1012.47 1013.01 1013.78 1013.98 1013.62 1013.96 1014.11 1014.23 1014.17 1014.00 1013.77 1013.44 1013.43 1013.47 1013.29 1013.13 1013.00 1012.97 1013.03 1012.96 1013.11 1013.08 1013.22 1013.38 1013.52 1013.72 1013.96 1014.07 1014.29 1014.26 1014.60 1014.59
1002.38 1003.81 1005.89 1008.96 1011.56 1013.44 1015.02 1014.95 1014.07 1013.82 1013.38 1012.74 1013.63 1012.40 1012.27 1013.03 1013.28 1013.21 1013.28 1013.86 1014.21 1014.22 1014.25 1014.23 1014.10 1014.02 1013.87 1013.66 1013.68 1013.64 1013.46 1013.43 1013.10 1012.95 1012.82 1012.72 1012.63 1012.73 1013.01 1012.92 1012.97 1013.00 1013.20 1013.27 1013.48 1013.58 1013.75 1014.06 1013.83
1004.86 1006.57 1007.51 1010.27 1012.59 1013.53 1014.38 1014.05 1012.46 1012.64 1012.20 1013.16 1013.06 1012.66 1012.64 1013.05 1013.62 1013.89 1013.92 1014.18 1014.60 1014.66 1014.48 1014.50 1014.31 1014.14 1014.02 1013.80 1013.73 1013.67 1013.63 1013.48 1013.31 1013.00 1012.64 1012.73 1012.58 1012.36 1012.43 1012.55 1012.56 1012.51 1012.61 1012.69 1012.85 1013.08 1013.13 1013.27 1013.40
Thickness
5861 5863 5856 5843 5793 5783 5769 5783 5818 5813 5806 5813 5823 5816 5805 5802 5789 5759 5809 5802 5793 5787 5782 5779 5778 5774 5771 5767 5765 5761 5756 5750 5749 5748 5746 5745 5745 5747 5748 5750 5750 5749 5746 5746 5746 5745 5742 5741 5742
5866 5867 5853 5820 5782 5761 5770 5815 5817 5820 5819 5814 5802 5808 5805 5796 5816 5807 5801 5800 5795 5789 5783 5780 5779 5775 5772 5768 5764 5762 5757 5753 5750 5749 5747 5746 5746 5747 5749 5750 5751 5750 5749 5748 5748 5746 5743 5740 5740
5859 5862 5827 5801 5789 5783 5788 5820 5823 5836 5835 5825 5790 5808 5802 5802 5816 5811 5807 5803 5795 5788 5784 5780 5779 5777 5774 5769 5765 5762 5759 5757 5754 5751 5749 5748 5748 5748 5749 5749 5749 5749 5749 5749 5749 5748 5744 5741 5740
5857 5848 5832 5796 5802 5826 5818 5818 5829 5831 5834 5837 5818 5797 5818 5827 5820 5822 5814 5807 5797 5789 5784 5780 5779 5778 5775 5769 5765 5763 5762 5760 5757 5753 5749 5748 5748 5748 5748 5747 5747 5747 5748 5750 5749 5747 5744 5743 5743
5859 5836 5797 5798 5815 5832 5837 5843 5834 5825 5826 5823 5825 5796 5801 5820 5826 5823 5814 5808 5799 5790 5784 5780 5780 5778 5774 5769 5766 5765 5764 5761 5756 5754 5753 5751 5750 5748 5748 5747 5747 5747 5749 5752 5752 5749 5745 5743 5742
5831 5824 5789 5792 5815 5835 5844 5848 5839 5827 5829 5823 5815 5803 5800 5823 5819 5819 5818 5808 5800 5792 5785 5782 5780 5778 5772 5770 5768 5767 5764 5760 5757 5756 5755 5753 5752 5751 5750 5749 5748 5748 5749 5751 5753 5752 5748 5745 5743
5824 5811 5800 5819 5814 5823 5829 5853 5841 5832 5824 5820 5827 5794 5799 5808 5819 5820 5816 5806 5796 5790 5785 5781 5780 5777 5770 5769 5767 5766 5764 5762 5759 5756 5755 5751 5750 5752 5751 5751 5750 5749 5748 5748 5751 5753 5751 5748 5746
5845 5826 5814 5827 5816 5819 5843 5843 5846 5830 5830 5845 5841 5799 5787 5808 5820 5814 5810 5801 5792 5787 5784 5781 5778 5776 5771 5770 5769 5767 5764 5761 5759 5758 5757 5756 5754 5754 5752 5753 5754 5753 5749 5747 5751 5753 5753 5752 5748
5880 5819 5808 5831 5824 5830 5846 5834 5853 5853 5837 5840 5840 5824 5821 5822 5820 5812 5800 5793 5787 5786 5784 5780 5780 5780 5775 5774 5772 5771 5768 5762 5764 5764 5761 5760 5756 5759 5754 5756 5758 5758 5753 5750 5752 5755 5756 5756 5754
5855 5819 5836 5858 5854 5843 5847 5841 5836 5829 5829 5821 5820 5825 5824 5820 5813 5802 5794 5788 5787 5785 5784 5784 5785 5783 5777 5777 5776 5775 5772 5767 5769 5765 5764 5757 5754 5756 5758 5756 5757 5760 5759 5756 5756 5759 5758 5761 5761
5864 5834 5855 5860 5868 5866 5851 5834 5846 5831 5816 5825 5812 5815 5817 5814 5810 5802 5799 5799 5796 5791 5788 5784 5784 5784 5780 5779 5779 5778 5773 5772 5772 5767 5760 5757 5758 5759 5757 5759 5760 5762 5763 5760 5761 5763 5764 5761 5763
5850 5864 5865 5866 5872 5856 5836 5842 5843 5839 5828 5837 5829 5826 5822 5816 5809 5806 5800 5797 5794 5792 5789 5792 5787 5785 5782 5779 5779 5782 5777 5775 5775 5772 5765 5763 5759 5762 5760 5761 5763 5763 5764 5764 5767 5768 5767 5765 5764
5856 5864 5871 5875 5866 5856 5865 5831 5831 5836 5838 5838 5833 5826 5817 5816 5813 5810 5808 5804 5799 5792 5791 5789 5789 5787 5786 5782 5781 5783 5783 5782 5783 5777 5775 5771 5767 5767 5764 5764 5765 5766 5768 5770 5772 5772 5771 5769 5769
5871 5870 5869 5872 5857 5855 5843 5832 5844 5835 5842 5832 5828 5822 5821 5818 5814 5812 5807 5802 5798 5794 5789 5789 5789 5790 5790 5788 5786 5789 5789 5788 5787 5784 5784 5779 5771 5768 5765 5770 5773 5774 5773 5770 5769 5773 5774 5773 5772
5872 5849 5861 5865 5857 5836 5844 5817 5820 5838 5842 5831 5826 5825 5825 5823 5819 5815 5816 5808 5804 5798 5791 5787 5792 5792 5793 5793 5789 5790 5795 5795 5789 5789 5788 5787 5779 5776 5772 5776 5783 5779 5777 5773 5772 5772 5772 5773 5776
5854 5855 5820 5858 5865 5853 5841 5800 5828 5843 5829 5794 5821 5824 5825 5823 5822 5820 5821 5813 5807 5801 5795 5790 5794 5795 5797 5796 5793 5790 5794 5795 5793 5789 5791 5791 5788 5786 5780 5781 5786 5786 5782 5778 5775 5772 5768 5773 5775
5841 5805 5827 5835 5865 5854 5837 5808 5834 5832 5821 5787 5806 5815 5826 5825 5824 5824 5827 5821 5812 5803 5802 5799 5799 5800 5800 5801 5797 5796 5795 5796 5797 5795 5794 5794 5794 5794 5791 5788 5790 5790 5787 5781 5778 5777 5777 5775 5778
5812 5823 5836 5827 5848 5849 5824 5811 5826 5815 5817 5803 5805 5813 5833 5829 5827 5829 5830 5829 5825 5816 5809 5805 5803 5801 5802 5800 5799 5798 5797 5798 5800 5800 5797 5795 5792 5794 5795 5794 5792 5793 5787 5784 5785 5781 5779 5781 5781
5841 5832 5842 5844 5858 5815 5799 5800 5808 5820 5814 5778 5778 5790 5839 5833 5833 5839 5836 5827 5823 5822 5817 5809 5805 5802 5801 5799 5799 5798 5795 5799 5801 5801 5798 5796 5792 5791 5792 5795 5793 5794 5786 5784 5791 5792 5785 5784 5785
5846 5839 5834 5846 5829 5812 5807 5794 5804 5819 5818 5818 5814 5793 5819 5798 5797 5807 5826 5834 5824 5822 5817 5808 5806 5804 5807 5805 5804 5803 5800 5801 5801 5801 5801 5798 5795 5793 5792 5792 5792 5792 5790 5786 5787 5793 5790 5790 5790
5841 5834 5840 5833 5816 5811 5804 5771 5780 5810 5817 5837 5842 5841 5818 5799 5760 5797 5815 5814 5828 5825 5823 5818 5809 5805 5805 5804 5803 5802 5798 5797 5796 5795 5797 5798 5798 5797 5796 5794 5793 5790 5790 5786 5785 5789 5789 5786 5789
5817 5862 5862 5849 5826 5782 5819 5743 5766 5786 5795 5819 5822 5833 5806 5812 5817 5828 5826 5809 5804 5822 5828 5823 5818 5812 5809 5807 5803 5797 5791 5786 5792 5794 5795 5797 5798 5797 5794 5793 5792 5790 5788 5786 5785 5785 5785 5782 5779
5833 5862 5854 5848 5824 5812 5792 5753 5760 5772 5793 5814 5824 5829 5825 5815 5819 5822 5812 5815 5815 5809 5815 5821 5822 5815 5814 5810 5806 5801 5796 5797 5797 5795 5793 5792 5795 5796 5795 5792 5791 5789 5789 5786 5785 5784 5781 5782 5781
5865 5849 5838 5838 5814 5767 5789 5764 5743 5754 5784 5806 5817 5824 5828 5815 5804 5813 5815 5821 5808 5819 5802 5818 5820 5818 5815 5814 5810 5805 5799 5798 5795 5794 5790 5790 5792 5793 5794 5794 5792 5789 5788 5787 5785 5784 5782 5781 5780
5847 5825 5767 5762 5752 5730 5760 5760 5754 5780 5791 5811 5809 5817 5819 5820 5816 5796 5794 5787 5797 5800 5794 5806 5819 5818 5813 5812 5810 5809 5805 5801 5797 5793 5792 5790 5789 5789 5791 5786 5790 5789 5788 5788 5786 5782 5781 5780 5775
5830 5819 5770 5747 5743 5737 5741 5726 5740 5761 5780 5806 5805 5805 5814 5809 5808 5796 5797 5795 5792 5795 5805 5811 5813 5814 5811 5811 5810 5808 5807 5804 5802 5801 5797 5794 5792 5792 5795 5793 5793 5791 5788 5787 5787 5784 5783 5782 5778
5829 5807 5837 5785 5785 5734 5714 5726 5761 5758 5764 5773 5792 5797 5798 5801 5807 5807 5796 5799 5802 5803 5800 5800 5800 5797 5798 5800 5803 5802 5803 5804 5801 5801 5799 5797 5798 5797 5796 5795 5791 5789 5788 5786 5785 5784 5782 5780 5779
5846 5851 5788 5779 5729 5721 5711 5723 5732 5739 5761 5766 5768 5784 5786 5791 5795 5799 5796 5790 5788 5794 5792 5790 5788 5787 5789 5792 5794 5795 5793 5795 5797 5797 5796 5796 5796 5795 5793 5790 5789 5787 5785 5783 5783 5781 5782 5777 5778
5827 5815 5808 5774 5753 5718 5707 5716 5747 5750 5762 5770 5760 5784 5787 5783 5783 5788 5790 5787 5783 5784 5784 5784 5784 5783 5783 5784 5784 5784 5786 5786 5789 5790 5790 5791 5792 5790 5788 5787 5786 5784 5782 5781 5781 5781 5779 5774 5775
5819 5793 5793 5750 5742 5733 5732 5720 5774 5768 5776 5764 5767 5778 5783 5782 5777 5779 5780 5778 5774 5773 5774 5774 5775 5775 5775 5776 5775 5774 5774 5776 5776 5778 5782 5781 5778 5783 5784 5783 5782 5782 5781 5780 5778 5775 5776 5775 5773